DELTA 1 DEB, 42655

Orbit data source: Space-Track

DELTA 1 DEB, 42655 is space debris in SSO originally from a launch on Thu, 12 Jun 1975 UTC launched from the Air Force Western Test Range (AFWTR). Debris objects in space refer to the collection of defunct objects orbiting the Earth. Examples of debris include non-operational satellites, rocket bodies, and fragments generated from explosions, collisions, or faulty payload assembly.

Loading next visibility...
Identifier
42655, 1975-052MQ
Orbit
SSO
Country
Flag of USUS
Related business
Manufacturer
Unknown
Mission
Spacecraft
Bus & Motor
Unknown
Mass
Unknown
Launch date (UTC)
1975-06-12 (51 years ago)
Launch vehicle
Unknown
Launch site
Air Force Western Test Range (AFWTR)
Object type
Payload
Rocket body
Debris
Shape & HBR
Unknown shape, 0.1 m
Radar Cross Section
Small (<0.1 m²)

Expand to show TLE details & history
Last TLE update: 3 days ago

TLE from 3 days ago
0 DELTA 1 DEB
1 42655U 75052MQ  26170.21690928  .00000161  00000-0  30873-3 0  9996
2 42655  99.5964 148.4575 0570567 103.5305 263.0000 12.98644011595979
Epoch: 2026-06-19T05:12Z
TLE epoch observation values (Epoch: 2026-06-19T05:12:20.961Z)
Latitude
-0.00003°
Longitude
162.92111°
Altitude
1,347.535 km
Speed
7.148 km/s
True Right ascension
09h 53m 49s
True Declination
0° 00' 00"
Sunlit
Object was in daylight at epoch
Visualization orbit readout
Latitude
Unknown
Longitude
Unknown
Altitude
Unknown
Speed
Unknown
Apparent Right ascension
Unknown
Apparent Declination
Unknown
Sunlit
N/A
Visualization observer readout
Local Sidereal Time
12:44:04
Azimuth
Unknown
Elevation
Unknown
Doppler factor
Unknown
Orbital elements
Apogee altitude
1,700.839 km
Perigee altitude
828.682 km
Semi-major axis
7,642.897 km
Eccentricity
0.05706
Inclination
99.5964°
RAAN
148.4575°
Arg. of periapsis
103.5305°
True anomaly
256.5799°
Mean anomaly
263°
Eccentric anomaly
259.78273°
Mean motion
3.2483 °/min
Orbital period
110.83 mins
BSTAR
0.00030873
Loading maneuver chart data...
Computing Atmospheric mass density...

Documentation

Showing up to 5 results
|